Погода в Тереховке

Беларусь     52°13′00″N   31°25′23″E
темп.,
°C
ветер,
м/с
пор.,
м/с
влажн.,
%
обл.,
%
осадки,
мм/ч
давл.,
гПа
погр.,
м
10 августа, ср
ср1000:00+15с3776100 0.0 1022126
03:00+14с3779100 0.0 1022141
06:00+13с3784100 0.0 1022136
09:00+18ссв4666100 0.0 1022388
12:00+22ссв5852100 0.0 10211340
15:00+23ссв674694 0.0 10202131
18:00+22св585543 0.0 10201315
21:00+19ссв41065100 0.0 1020595
11 августа, чт
чт1100:00+16ссв4988100 0.0 1020309
03:00+14св389799 0.1 1020262
06:00+15св51196100 1.4 1019352
09:00+17св698699 1.5 1019498
12:00+21всв5777100 0.4 1020510
15:00+23всв79675 0.4 1019740
18:00+25всв696452 0.0 10191052
21:00+20св4107987 0.0 1020289
12 августа, пт
пт1200:00+18св5138235 0.0 1020347
03:00+17св411845 0.2 1020262
06:00+16св411887 0.1 1020220
09:00+21всв51070100 0.1 1020389
12:00+25в5760100 0.0 1021784
15:00+22юз2274100 0.1 102256
18:00+20сз5888100 3.4 1021169
21:00+19ссз5994100 11.3 1021155
13 августа, сб
сб1300:00+19ссв3995100 4.1 1020216
03:00+19всв41093100 6.9 1020250
06:00+18всв4893100 0.1 1020166
09:00+20св4791100 0.4 1020175
12:00+21всв498499 0.0 1020304
15:00+21всв51175100 0.1 1019285
18:00+21св61383100 0.7 1018432
21:00+19всв5128488 0.8 1018284
14 августа, вс
вс1400:00+18всв51691100 1.5 1017382
03:00+19всв6178563 2.7 1016419
06:00+18св5158699 0.2 1016446
09:00+22в61674100 0.2 1016536
12:00+27в71057100 0.0 1015801
15:00+29вюв6853100 0.0 1014929
18:00+28в5959100 0.0 1014412
21:00+23всв5137499 0.0 1014288